Regional Weather Roundup
Issued by NWS

Home | Current Version | Previous Version | Graphics & Text | Print | Product List | Glossary On
Versions: 1 2 3 4 5 6 7 8 9 10 11 12 13 14 15 16 17 18 19 20 21 22 23 24 25 26 27
000
ASUS45 KTFX 221610
RWRMT
MONTANA REGIONAL WEATHER ROUNDUP
NATIONAL WEATHER SERVICE GREAT FALLS MT
900 AM MST WED FEB 22 2017

NOTE: "FAIR" INDICATES FEW OR NO CLOUDS BELOW 12000 FEET WITH NO
SIGNIFICANT WEATHER AND/OR OBSTRUCTIONS TO VISIBILITY.

MTZ001>007-043-221700-
WEST OF THE DIVIDE

CITY           SKY/WX    TMP DP  RH WIND       PRES   REMARKS
KALISPELL      CLOUDY    29  27  92 CALM      29.96R
MISSOULA       CLOUDY    32  31  96 CALM      29.98R
BUTTE          LGT SNOW  28  22  78 NW8       29.90R WCI  20
MULLAN PASS    SNOW      24  22  91 CALM      29.88S VSB 1/4
ANACONDA         N/A     28  27  93 CALM      29.92R
DEER LODGE       N/A     30  27  86 CALM      29.95S
EUREKA           N/A     30  28  93 E3        29.99R VSB 0
HAMILTON         N/A     34  30  86 CALM      29.96S
PLAINS           N/A     31  26  81 CALM      30.00R
RONAN            N/A     32  29  89 CALM      30.00S
$$

MTZ008-052>055-221700-
SOUTHWEST MONTANA

CITY           SKY/WX    TMP DP  RH WIND       PRES   REMARKS
BOZEMAN        LGT SNOW  32  29  88 E6        29.92S FOG     WCI  26
DILLON         CLOUDY    32  20  61 SW12      29.89S WCI  23
W YELLOWSTONE  CLOUDY    25  19  80 SW12G18   29.90S WCI  14
ENNIS          PTSUNNY   32  18  55 S10       29.94S WCI  24
THREE FORKS      N/A     37 -57   1 CALM      29.91R
TWIN BRIDGES     N/A     33  21  61 SE1       29.91R
$$

MTZ009-010-012-014-046-048-049-054-221700-
EAST SLOPES AND CENTRAL MONTANA

CITY           SKY/WX    TMP DP  RH WIND       PRES   REMARKS
CUT BANK       CLOUDY    27  23  85 N9        29.86R WCI  18
GREAT FALLS    CLOUDY    32  30  92 SW5       29.87R
HELENA         CLOUDY    37  24  59 W10       29.90R WCI  30
AUGUSTA          N/A     29  24  81 NW12      29.85R WCI  20
CHOTEAU          N/A     32  27  80 NW7       29.88S WCI  26
CONRAD           N/A     29  28  96 N1        29.90R
RAYNESFORD     PTSUNNY   33  28  83 NW3       29.87R
$$

MTZ011-013-016-021-045-047-050-051-221700-
NORTH CENTRAL MONTANA

CITY           SKY/WX    TMP DP  RH WIND       PRES   REMARKS
HAVRE          LGT SNOW  31  31 100 E7        29.90S FOG     WCI  24
LEWISTOWN      LGT SNOW  30  29  96 W7        29.86S FOG     WCI  23
N BAR RANCH    LGT SNOW  32  28  86 NW10      29.87R WCI  24
CHINOOK          N/A     30  30 100 CALM      29.93R
FORT BENTON      N/A     34  32  93 CALM      29.90S
GEYSER         FLURRIES  32  29  92 W7        29.86R WCI  25
JUDITH GAP     LGT SNOW  29  28  96 N9        29.84S WCI  21
STANFORD       FLURRIES  31  30  94 NW8       29.85R WCI  24
$$

MTZ017>020-022>027-061-062-221700-
NORTHEAST MONTANA

CITY           SKY/WX    TMP DP  RH WIND       PRES   REMARKS
GLASGOW        LGT SNOW  31  28  89 NE10      29.91R FOG     WCI  22
SIDNEY         CLOUDY    31  29  92 N13       29.87R WCI  21
WOLF POINT     LGT SNOW  31  25  78 N7        29.92R WCI  24
PLENTYWOOD       N/A     28  25  86 N10       29.88R WCI  19
POPLAR           N/A     28  25  86 N7        29.91R WCI  21
SCOBEY           N/A     28  19  69 N6        29.88R WCI  22
$$

MTZ028>42-056>058-221700-
SOUTHCENTRAL AND SOUTHEAST MONTANA

CITY           SKY/WX    TMP DP  RH WIND       PRES   REMARKS
BAKER          CLOUDY    31  30  96 N15       29.79R WCI  20
BILLINGS       CLOUDY    38  28  67 NW12      29.87R WCI  30
LIVINGSTON     CLOUDY    34  25  69 SW15      29.88R WCI  24
MILES CITY     LGT SNOW  33  32  96 N9        29.85R FOG     WCI  25
BIG TIMBER     SUNNY     34  27  75 W23       29.87F WCI  22
EKALAKA          N/A     32  29  89 NW8       29.77R VSB 0   WCI  25
FORSYTH          N/A     32  32 100 NW7       29.88R VSB 3/4 WCI  26
LAUREL           N/A     38  25  60 NW6       29.87R
$$

REGIONAL REPORTS...DAKOTAS

CITY           SKY/WX    TMP DP  RH WIND       PRES   REMARKS
WILLISTON      CLOUDY    30  26  85 N15       29.87R WCI  19
MINOT          CLOUDY    32  28  85 N15       29.81R WCI  22
DICKINSON      LGT SNOW  29  27  92 N12       29.76R VSB 3/4 WCI  19
BEACH            N/A    N/A N/A N/A MISG        N/A
CROSBY         PTSUNNY   28  28 100 N14       29.89R WCI  17
TIOGA          CLOUDY    28  28 100 NE14      29.86R WCI  17
WATFORD CITY   LGT SNOW  30  30 100 NE8       29.85R WCI  23
BISMARCK       LGT SNOW  34  33  96 N6        29.75R FOG     WCI  29
GRAND FORKS    DRIZZLE   34  29  82 N20       29.75R WCI  23
FARGO          FOG       33  33 100 N9        29.69R VSB 3/4 WCI  25
BUFFALO SD       N/A     38  36  92 NW10      29.69R WCI  31
RAPID CITY     PTSUNNY   51  27  39 NW23      29.74F
$$

REGIONAL REPORTS...WYOMING/IDAHO/WASHINGTON

CITY           SKY/WX    TMP DP  RH WIND       PRES   REMARKS
GILLETTE       CLOUDY    40  24  53 NW15      29.83R
SHERIDAN       SUNNY     40  26  57 NW12G17   29.85R
BUFFALO WY     SUNNY     39  21  48 N21G28    29.83R WCI  29
CODY           MOSUNNY   38  16  40 W12G18    29.85F WCI  30
YELLOWSTONE LA   N/A     22  17  81 CALM      29.89R
IDAHO FALLS    MOSUNNY   29  27  92 SW9       29.97S WCI  20
SALMON         CLOUDY    32  28  86 E3        29.95S
BOISE          PTSUNNY   32  27  81 CALM      29.99F
SPOKANE        CLOUDY    31  29  92 SW8       30.04R FOG     WCI  23
$$

REGIONAL REPORTS...ALBERTA

CITY           SKY/WX    TMP DP  RH WIND       PRES   REMARKS
EDMONTON       PTSUNNY   25  19  80 W3        29.98R
CALGARY        LGT SNOW  25  21  86 N13       29.92R WCI  13
LETHBRIDGE     CLOUDY    28  27  93 NW10G17   29.92R FOG     WCI  19
MEDICINE HAT   CLOUDY    32  30  93 E5        29.92R
WATERTON GATE    N/A     23  21  93 NE12        N/A  WCI  12
CARDSTON         N/A     25  25 100 N12         N/A  WCI  14
MILK RIVER       N/A     30  30 100 N9          N/A  WCI  22
$$

REGIONAL REPORTS...SASKATCHEWAN

CITY           SKY/WX    TMP DP  RH WIND       PRES   REMARKS
SWIFT CURRENT  PTSUNNY   30  28  93 W7        29.88S WCI  23
REGINA         CLOUDY    30  25  80 NW7       29.90R WCI  23
SASKATOON      CLOUDY    30  28  93 N12       29.91R WCI  21
CYPRESS HILLS    N/A     27  19  74 SE2         N/A
VAL MARIE        N/A     30  27  86 NW3         N/A
ROCKGLEN         N/A     27  23  86 N5          N/A
ASSINIBOIA       N/A     25  19  80 NW5         N/A
$$




USA.gov is the U.S. government's official web portal to all federal, state and local government web resources and services.